RH
99 98 98 97 96 93 93 89 82 83 80 81 84 84 88 92 90 89 90 93 91 85 80 81 81 80 82 82 82 82 82 82 82 84 84 85 86 87 88 89 90 93 96
98 98 98 97 96 93 90 90 86 83 76 78 82 82 94 93 94 94 90 91 90 88 84 80 79 78 79 79 80 80 79 78 78 76 78 80 81 82 84 85 86 87 88
96 96 98 97 96 85 83 80 80 79 78 70 66 83 90 91 91 89 86 87 86 87 84 79 78 75 76 76 74 73 72 73 73 74 75 74 75 76 77 78 80 81 83
91 97 98 94 87 82 83 82 81 79 72 70 70 88 92 92 90 89 86 82 82 78 80 78 75 72 71 69 67 67 67 68 68 70 70 69 70 71 72 73 74 74 76
85 95 96 88 84 82 84 80 84 79 71 68 78 93 90 91 89 87 87 82 81 79 76 77 75 75 75 74 70 67 67 67 68 69 70 70 70 70 71 71 71 72 74
85 87 85 85 83 84 83 82 82 83 80 85 86 88 87 85 87 88 86 82 83 84 83 82 84 75 74 72 71 69 68 68 72 69 71 70 68 68 68 69 70 70 70
82 82 80 81 81 81 82 81 84 80 81 95 95 79 78 81 86 85 80 82 76 75 78 78 81 83 80 76 72 72 70 67 66 67 69 65 65 65 64 66 70 70 70
78 77 79 82 82 83 83 83 81 83 83 90 97 95 88 81 87 84 84 79 75 68 73 74 79 80 81 79 74 72 70 68 68 69 70 67 69 66 67 67 67 68 69
76 77 79 84 85 85 85 85 85 80 79 88 89 92 98 96 86 80 82 78 71 73 71 75 77 77 79 80 77 75 72 71 72 70 68 70 67 71 71 70 70 69 68
79 81 81 84 85 87 86 85 83 86 80 82 84 76 86 85 88 96 80 74 68 67 71 71 78 77 77 78 73 70 70 72 67 69 70 72 71 70 72 73 71 71 72
82 82 85 88 88 88 86 84 82 83 85 83 84 81 80 84 83 92 96 88 74 71 70 72 78 78 80 78 75 70 69 71 70 71 71 72 72 74 76 75 75 72 70
88 87 84 89 90 89 85 84 83 82 85 82 82 83 80 83 82 87 91 88 85 80 74 74 75 78 82 76 66 69 70 69 68 70 70 71 73 76 75 72 72 72 74
92 91 91 91 90 85 86 85 84 83 82 82 82 82 82 80 80 82 86 90 88 78 74 76 77 76 72 78 70 70 69 69 68 68 67 67 67 70 68 71 69 72 73
89 90 93 92 88 87 87 86 87 87 86 86 82 80 81 81 79 79 85 88 94 85 76 73 74 77 78 77 73 73 71 68 70 69 69 68 66 67 68 69 67 69 73
84 91 91 91 90 88 84 85 87 85 84 84 84 81 80 82 82 80 81 81 87 94 83 69 67 68 77 80 77 79 80 69 71 71 67 67 65 69 70 70 67 65 70
87 91 90 85 85 84 84 82 83 86 83 86 84 82 78 80 81 82 82 81 81 86 83 69 58 55 68 77 75 82 79 71 70 70 70 66 62 64 69 67 70 64 70
91 92 90 87 87 83 82 82 81 82 81 81 79 78 80 78 84 84 85 84 81 81 78 59 56 51 64 77 81 83 80 81 76 66 66 66 64 64 69 67 69 67 74
93 93 92 88 84 84 86 80 77 77 78 82 81 82 82 70 84 85 86 86 83 79 78 68 53 51 59 78 82 82 67 55 84 73 68 66 67 61 67 60 68 66 73
94 92 86 83 80 80 79 80 81 82 83 85 84 83 85 86 90 85 86 83 78 64 64 53 55 54 58 74 63 65 71 67 66 76 72 66 66 63 63 62 70 69 68
94 92 88 84 80 78 78 78 79 84 85 86 87 83 82 80 78 79 72 70 77 68 56 55 53 54 55 58 65 61 74 71 76 73 76 77 72 70 66 63 68 68 64
91 87 83 83 82 82 77 86 84 91 90 94 92 84 86 91 96 83 69 62 67 62 55 52 52 54 56 62 73 65 58 71 76 79 82 72 76 72 63 65 65 70 69
91 89 91 90 92 90 90 93 94 94 90 91 92 93 92 94 96 81 66 60 58 60 58 57 56 52 61 62 65 68 63 61 71 73 77 74 64 76 68 59 64 71 77
97 100 100 100 100 100 98 100 96 92 93 92 90 86 86 90 90 84 81 78 74 71 67 60 59 69 71 74 67 69 64 58 64 80 71 78 70 80 73 56 63 67 71
99 99 99 99 99 100 100 98 94 96 96 96 96 95 93 88 88 74 68 78 86 83 77 67 76 82 81 70 66 56 57 70 76 79 77 85 89 87 81 75 66 65 68
98 98 98 99 99 100 97 94 94 96 97 97 94 95 89 90 83 73 77 91 94 94 76 75 76 72 71 71 63 60 69 68 87 89 94 93 96 94 94 91 80 72 67
99 97 99 99 98 99 95 94 96 95 96 95 96 94 82 89 73 77 92 93 96 97 94 91 92 91 92 85 76 87 82 70 91 93 94 92 96 95 96 90 83 80 73
Wind_Speed
3 3 2 2 2 1 2 2 3 3 4 5 4 5 7 7 7 5 6 15 13 16 20 21 20 20 20 19 19 18 20 19 18 20 19 19 18 17 17 16 15 15 9
3 3 3 2 2 2 2 2 2 4 3 4 4 4 6 7 7 8 7 10 19 19 20 20 19 18 19 19 17 17 17 16 16 15 16 16 17 18 18 18 17 17 15
3 3 3 3 2 2 4 4 4 4 4 4 6 4 5 7 7 9 8 7 12 20 18 18 20 16 19 18 16 16 15 15 16 16 16 15 15 15 15 15 17 17 17
3 4 3 3 3 3 3 4 3 4 4 4 4 5 5 7 8 8 8 7 8 8 13 18 18 17 17 16 15 15 15 15 16 16 15 15 15 15 15 15 14 14 15
3 3 2 2 3 3 3 2 3 3 3 4 6 6 6 6 7 7 10 10 9 9 7 17 18 19 18 17 17 16 16 16 16 16 16 16 16 16 16 16 16 16 16
4 4 3 3 3 2 3 2 3 4 2 4 7 8 7 6 7 6 9 9 10 9 8 8 6 10 17 17 17 16 16 16 17 16 17 18 17 17 17 17 18 17 17
4 4 3 2 3 1 1 2 2 4 3 3 5 7 7 8 9 7 7 7 9 9 8 7 5 5 6 17 17 16 15 15 16 17 17 17 17 17 16 18 18 19 18
2 3 3 2 2 1 1 1 2 2 2 3 3 3 4 3 6 7 6 7 8 6 8 8 8 8 7 6 12 15 14 15 15 16 15 17 16 18 17 16 17 17 18
1 2 3 3 3 3 3 1 1 2 2 1 4 2 3 4 5 4 6 6 7 5 6 7 8 8 7 6 8 10 16 16 17 15 16 15 16 17 18 18 19 19 18
1 1 2 3 3 2 2 3 3 3 3 4 0 2 3 4 4 4 3 5 5 6 6 6 6 6 6 5 11 14 15 14 15 15 16 17 19 19 20 20 20 20 20
1 1 2 3 3 3 4 3 3 4 3 3 3 3 2 3 4 4 4 4 4 4 5 5 5 4 4 4 5 11 14 14 14 15 17 19 20 21 21 21 19 18 18
2 2 3 3 2 3 3 3 2 2 4 4 4 3 4 4 4 4 4 4 5 3 4 4 4 4 3 3 9 13 14 14 16 17 18 20 21 21 20 19 18 19 20
3 5 4 5 4 3 3 3 3 3 2 2 4 3 2 3 3 3 4 4 4 3 3 2 3 2 3 3 6 9 13 14 17 19 21 21 20 19 18 18 19 21 19
3 4 5 4 4 5 5 3 2 3 3 3 4 3 2 2 3 3 5 8 4 4 3 4 1 2 2 2 7 9 7 14 17 19 20 21 19 18 18 18 19 19 20
3 6 6 5 5 4 4 5 4 4 4 3 4 4 3 2 2 2 3 4 8 6 3 5 3 2 2 3 6 4 4 13 15 17 18 18 18 18 19 18 18 19 20
6 5 6 6 6 5 5 4 3 3 4 2 3 5 3 2 3 3 2 3 3 5 5 3 2 4 3 6 7 4 6 10 14 15 17 16 17 17 18 17 19 18 20
6 7 7 6 6 6 6 5 5 5 5 3 2 4 5 3 2 3 2 3 4 3 7 4 3 3 3 7 5 4 5 5 5 13 14 15 15 16 16 17 18 17 20
5 5 5 6 6 5 5 4 4 5 6 5 4 4 4 4 4 3 2 3 3 3 5 12 6 3 3 5 6 5 3 4 3 12 15 16 15 14 15 15 16 17 20
4 5 6 7 7 7 7 5 6 6 6 6 5 5 5 4 3 1 1 3 3 5 5 8 6 3 2 5 5 5 3 4 5 13 16 15 14 14 14 15 18 19 18
5 6 5 6 5 7 8 7 8 8 7 6 5 6 5 4 3 2 3 4 5 7 8 8 6 4 3 3 3 5 4 3 3 5 11 11 11 15 16 15 18 19 17
5 5 5 5 6 7 6 10 9 9 8 6 5 5 4 6 6 4 3 1 5 4 6 6 6 4 4 4 6 3 4 4 3 3 6 5 6 7 8 11 14 19 19
6 6 6 7 7 5 15 14 12 9 7 7 7 8 8 10 9 6 5 4 2 6 6 5 3 5 5 4 4 6 6 4 3 2 5 6 5 7 7 7 16 17 20
5 6 6 7 6 7 14 14 15 7 8 7 8 7 6 6 7 8 11 12 14 13 7 4 5 4 6 6 7 6 6 3 3 3 6 6 5 7 6 8 15 15 17
5 6 7 7 7 6 14 15 16 8 7 7 7 6 6 5 3 4 6 8 8 8 8 7 6 5 5 7 5 4 6 8 6 4 1 4 2 5 4 6 14 15 15
5 3 5 7 8 7 15 16 12 7 8 8 7 7 6 5 7 8 8 10 8 7 13 16 13 11 12 10 7 7 7 7 2 1 2 3 2 3 2 5 6 13 15
4 4 5 4 8 7 15 15 11 6 7 6 5 5 9 4 8 10 7 7 8 5 6 6 6 11 12 8 6 2 4 4 3 2 0 3 3 3 2 1 6 6 6
Wind_Direction
143 126 120 118 107 43 40 17 50 75 75 85 82 107 102 91 79 76 78 76 80 95 101 101 94 88 83 74 70 68 65 60 58 57 53 48 47 43 39 37 32 28 351
144 133 125 126 108 106 93 65 51 70 49 75 56 79 103 99 98 92 89 75 78 77 84 86 86 86 83 78 68 67 61 56 53 45 44 43 41 40 35 34 30 27 20
141 137 143 128 126 111 105 89 61 65 73 52 74 54 98 100 94 97 82 72 77 74 76 86 84 83 80 75 70 64 59 56 51 48 43 34 32 31 29 23 20 16 10
152 149 147 140 133 110 110 102 94 72 78 76 65 36 58 73 82 81 83 82 76 77 72 81 85 80 73 68 68 64 59 54 51 46 40 34 29 27 25 21 17 6 358
105 119 135 126 124 115 100 112 68 90 99 96 92 77 60 69 75 84 79 82 71 74 77 80 76 71 68 60 55 51 50 49 47 45 40 36 31 30 27 23 17 10 5
48 74 84 95 94 87 90 89 107 54 85 103 91 81 76 70 68 73 85 81 71 66 69 64 44 67 65 59 50 44 44 44 45 42 36 36 32 29 25 24 20 15 8
46 67 67 64 61 108 143 128 97 108 79 146 101 84 60 65 69 61 64 79 81 75 69 65 64 62 54 58 55 45 43 44 45 41 37 31 25 22 20 18 14 10 6
86 111 116 100 110 92 88 151 97 111 111 226 132 126 149 99 57 60 68 76 66 72 65 59 61 60 54 46 54 53 48 47 47 45 39 34 32 28 21 16 10 5 1
68 121 137 156 161 143 172 179 171 153 153 237 278 144 149 167 124 59 62 76 82 75 79 72 62 56 51 53 52 42 50 45 46 44 43 39 38 30 23 14 7 360 350
69 135 155 165 169 152 169 176 168 179 150 181 167 13 16 126 152 149 86 75 89 87 85 81 77 72 64 55 57 60 55 48 46 44 45 42 33 24 18 12 5 360 357
188 168 177 167 168 167 161 190 172 190 181 169 166 147 95 54 85 135 149 143 87 78 86 83 75 70 73 91 70 65 60 53 52 52 48 41 33 23 18 11 3 358 356
209 194 159 168 173 180 178 162 156 213 193 165 163 175 172 170 170 145 123 139 133 115 98 87 77 67 61 49 78 77 66 60 56 52 48 43 38 27 18 8 3 2 4
207 216 184 177 171 184 157 143 136 126 191 192 171 182 181 167 149 128 112 130 143 142 135 90 89 82 84 67 80 70 72 65 63 57 50 43 36 26 19 11 6 12 9
195 180 201 194 201 169 156 145 115 123 129 129 135 134 122 137 158 156 145 145 130 146 150 140 131 105 100 136 101 86 82 69 62 59 51 43 34 27 17 14 13 16 16
206 187 190 189 187 180 159 155 147 149 139 137 130 128 116 100 76 131 142 148 142 152 143 169 145 152 115 102 111 90 89 82 70 60 56 51 38 30 17 15 17 22 24
205 180 188 175 170 170 167 153 140 134 126 136 129 114 100 98 97 90 116 118 121 128 127 139 134 140 145 131 112 77 86 88 84 67 55 52 42 34 23 14 22 25 28
196 195 186 179 182 172 165 151 143 139 134 128 103 116 109 98 87 94 96 109 127 119 121 118 106 116 106 134 105 95 86 74 75 78 67 54 50 40 30 22 26 32 34
196 194 173 172 163 153 145 151 149 141 134 121 112 100 97 97 67 46 36 84 113 109 117 136 139 128 125 140 126 100 82 70 83 87 69 55 51 46 33 28 29 38 41
203 183 172 173 165 160 148 131 117 104 91 92 91 88 79 80 81 9 7 155 122 111 101 134 127 121 114 139 107 92 88 72 62 87 73 59 43 46 40 30 31 40 42
184 183 175 163 146 134 125 117 113 105 88 89 86 93 80 72 56 11 272 211 127 110 115 120 108 117 129 117 134 134 110 67 82 67 74 61 54 42 37 27 35 38 43
164 146 128 111 124 123 131 125 119 109 117 93 65 66 79 93 75 297 263 266 128 113 125 119 125 136 143 151 168 152 125 122 73 58 91 65 54 41 30 19 38 35 42
88 98 106 119 120 109 127 127 125 125 120 117 109 82 64 64 73 68 38 59 100 141 134 128 138 157 151 146 145 157 148 152 136 30 104 69 56 52 25 26 37 38 36
100 93 96 103 95 113 133 133 128 119 123 122 123 118 108 78 73 77 70 67 62 64 73 120 151 151 147 161 150 155 156 132 120 122 127 80 46 64 21 27 35 41 41
110 117 111 110 120 132 141 135 120 116 115 115 121 111 104 108 95 123 106 81 63 63 64 72 89 127 117 143 145 137 138 113 105 82 6 113 57 72 31 28 37 39 42
113 114 119 123 124 142 148 142 124 121 116 113 112 116 125 143 167 150 117 102 101 75 88 84 73 133 129 143 130 126 140 137 117 97 2 108 129 124 46 33 26 44 45
97 107 102 116 147 145 158 149 124 119 116 116 111 131 124 144 141 135 122 128 108 87 89 79 67 62 58 68 102 69 148 135 122 129 191 106 142 162 127 7 43 35 38